This is the latest recevied weather packets stored in our database for station/object KD7AWQ. If no packets are shown the sender has not sent any weather packets the latest 10 day(s).
| Time | Temp. | Humidity | Pressure | Rain* | Wind** | Luminosity | Snow |
|---|---|---|---|---|---|---|---|
| 1777627702 | 11.67° C | 73% | 1180.9 hPa | 0 mm | - | 0 W/m² | - |
| 1777627401 | 11.67° C | 72% | 1180.6 hPa | 0 mm | - | 0 W/m² | - |
| 1777627098 | 11.67° C | 71% | 1180.9 hPa | 0 mm | - | 0 W/m² | - |
| 1777626794 | 12.22° C | 70% | 1180.5 hPa | 0 mm | - | 0 W/m² | - |
| 1777626490 | 12.78° C | 70% | 1180.6 hPa | 0 mm | - | 0 W/m² | - |
| 1777626185 | 12.78° C | 70% | 1180.6 hPa | 0 mm | - | 0 W/m² | - |
| 1777625883 | 12.78° C | 70% | 1180.7 hPa | 0 mm | - | 0 W/m² | - |
| 1777625579 | 12.22° C | 70% | 1180.5 hPa | 0 mm | - | 0 W/m² | - |
| 1777625275 | 12.22° C | 70% | 1180.5 hPa | 0 mm | - | 0 W/m² | - |
| 1777624972 | 12.22° C | 69% | 1180.6 hPa | 0 mm | - | 0 W/m² | - |
| 1777624669 | 12.78° C | 69% | 1180.9 hPa | 0 mm | - | 0 W/m² | - |
| 1777624364 | 13.33° C | 66% | 1180.6 hPa | 0 mm | - | 0 W/m² | - |
| 1777624061 | 13.33° C | 67% | 1180.7 hPa | 0 mm | - | 0 W/m² | - |
| 1777623758 | 13.33° C | 66% | 1180.7 hPa | 0 mm | - | 0 W/m² | - |
| 1777623455 | 13.89° C | 65% | 1180.9 hPa | 0 mm | - | 0 W/m² | - |
| 1777623152 | 14.44° C | 62% | 1180.6 hPa | 0 mm | - | 0 W/m² | - |
| 1777622849 | 15° C | 54% | 1180.7 hPa | 0 mm | - | 0 W/m² | - |
| 1777622546 | 15° C | 55% | 1181.2 hPa | 0 mm | - | 0 W/m² | - |
| 1777622243 | 15° C | 54% | 1181 hPa | 0 mm | - | 0 W/m² | - |
| 1777621940 | 15° C | 55% | 1181 hPa | 0 mm | - | 0 W/m² | - |
| 1777621635 | 15° C | 55% | 1180.9 hPa | 0 mm | - | 0 W/m² | - |
| 1777621027 | 15° C | 55% | 1181.2 hPa | 0 mm | - | 0 W/m² | - |
| 1777620723 | 15° C | 55% | 1181.2 hPa | 0 mm | - | 0 W/m² | - |
| 1777620419 | 15° C | 55% | 1181.1 hPa | 0 mm | - | 0 W/m² | - |
| 1777620116 | 15° C | 56% | 1181.4 hPa | 0 mm | - | 0 W/m² | - |
* Rain latest hour (hover to see other rain measurements)
** Current wind speed in m/s (hover to see current wind gust speed)